sat.trackr.live / text

‹ back to catalog

STARLINK-35602

NORAD 66403 · 2025-257Z

PAYLOAD ACTIVE UNKNOWN

§ Identity

Operator
Country
US
Launch date
2025-11-09
Launch site
AFETR
Launch vehicle
Mass (kg)
RCS (m²)

Purposes: comms

External: N2YO · Heavens-Above · Gunter

§ Orbital elements

Epoch: 2026-09-20T20:08:43.906848Z

Period
93.85 min
Inclination
53.1582°
Eccentricity
0.0001099
Mean motion
15.34405324 rev/d
Perigee alt
461.9 km
Apogee alt
463.4 km
Semi-major
6,840.8 km
B*
6.1278e-4
RAAN
26.1824°
Arg perigee
78.3125°
Mean anomaly
281.8001°
Rev number
4,967

§ Raw data

STARLINK-356021 66403U 25257Z   26263.83939707  .00020387  00000+0  61278-3 0  99912 66403  53.1582  26.1824 0001099  78.3125 281.8001 15.34405324 49670

JSON: /api/v1/satellites/66403 · /tle

For live sub-satellite position, see the globe view (requires WebGL).

§ Visibility from observer

Set your observer location to see the next 7 days of passes ≥ 10°. The values pass through the URL so the page stays shareable.

No JS? Fill the form by hand. The geolocation button needs JavaScript.